Weather History for Farmington, MO

Change the Weather History Date:

Tuesday, February 19, 2013

  Actual Average Record
Temperature  
Mean Temperature 32 °F -  
Max Temperature 39 °F 45 °F 66 °F (2004)
Min Temperature 24 °F 29 °F 6 °F (2006)
Degree Days  
Heating Degree Days 34    
Moisture  
Dew Point 13 °F    
Average Humidity 48    
Maximum Humidity 70    
Minimum Humidity 26    
Precipitation  
Precipitation 0.01 in - - ()
Sea Level Pressure  
Sea Level Pressure 30.13 in    
Wind  
Wind Speed 13 mph (WNW)    
Max Wind Speed 20 mph    
Max Gust Speed 30 mph    
Visibility 10 miles    
Events      
Averages and records for this station are not official NWS values.
T = Trace of Precipitation, MM = Missing Value Source: NWS Daily Summary

Daily Weather History Graph

Daily Weather History Graph

Search for Another Location

Airport:

Trip Planner

Search our weather history database for the weather conditions in past years. The results will help you decide how hot, cold, wet, or windy it might be!

Date:

Astronomy

Feb. 19, 2013 Rise Set
Actual Time 6:46 AM CST 5:45 PM CST
Civil Twilight 6:19 AM CST 6:12 PM CST
Nautical Twilight 5:48 AM CST 6:42 PM CST
Astronomical Twilight 5:18 AM CST 7:13 PM CST
Moon 12:20 PM CST (2/19) 2:14 AM CST (2/19)
Length of Visible Light 11h 52m
Length of Day
10h 59m
Waxing Gibbous, 67% of the Moon is Illuminated
Feb 19
Waxing Gibbous
Feb 25
Full
Mar 4
Last Quarter
Mar 11
New
Mar 19
First Quarter

Hourly Weather History & Observations

Time (CST) Temp. Windchill Dew Point Humidity Pressure Visibility Wind Dir Wind Speed Gust Speed Precip Events Conditions
12:15 AM 33.8 °F 22.5 °F 24.8 °F 70% 29.94 in 10.0 mi West 19.6 mph 28.8 mph N/A   Overcast
12:35 AM 33.8 °F 23.5 °F 23.0 °F 65% 29.95 in 10.0 mi West 16.1 mph 24.2 mph N/A   Overcast
12:55 AM 32.0 °F 22.5 °F 21.2 °F 64% 29.96 in 10.0 mi West 12.7 mph 25.3 mph N/A   Mostly Cloudy
1:15 AM 30.2 °F 19.8 °F 21.2 °F 69% 29.97 in 10.0 mi West 13.8 mph 21.9 mph N/A   Partly Cloudy
1:35 AM 30.2 °F 21.9 °F 21.2 °F 69% 29.98 in 10.0 mi West 9.2 mph 19.6 mph N/A   Clear
1:55 AM 30.2 °F 19.3 °F 21.2 °F 69% 29.98 in 10.0 mi West 15.0 mph 24.2 mph N/A   Clear
2:15 AM 30.2 °F 18.5 °F 19.4 °F 64% 29.98 in 10.0 mi West 17.3 mph 26.5 mph N/A   Clear
2:35 AM 30.2 °F 19.8 °F 19.4 °F 64% 29.99 in 10.0 mi West 13.8 mph 19.6 mph N/A   Clear
2:55 AM 28.4 °F 16.6 °F 19.4 °F 69% 29.99 in 10.0 mi West 16.1 mph 21.9 mph N/A   Clear
3:15 AM 28.4 °F 17.0 °F 17.6 °F 64% 29.99 in 10.0 mi West 15.0 mph 23.0 mph N/A   Clear
3:35 AM 28.4 °F 18.0 °F 17.6 °F 64% 30.00 in 10.0 mi West 12.7 mph 19.6 mph N/A   Clear
3:55 AM 28.4 °F 17.0 °F 17.6 °F 64% 30.00 in 10.0 mi West 15.0 mph 20.7 mph N/A   Clear
4:15 AM 28.4 °F 19.1 °F 17.6 °F 64% 30.01 in 10.0 mi West 10.4 mph 24.2 mph N/A   Clear
4:35 AM 28.4 °F 17.0 °F 17.6 °F 64% 30.01 in 10.0 mi West 15.0 mph 23.0 mph N/A   Clear
4:55 AM 26.6 °F 15.7 °F 15.8 °F 64% 30.02 in 10.0 mi West 12.7 mph 20.7 mph N/A   Clear
5:15 AM 26.6 °F 16.8 °F 15.8 °F 64% 30.03 in 10.0 mi West 10.4 mph 20.7 mph N/A   Clear
5:55 AM 26.6 °F 14.3 °F 15.8 °F 64% 30.03 in 10.0 mi West 16.1 mph 24.2 mph N/A   Clear
6:15 AM 26.6 °F 16.2 °F 15.8 °F 64% 30.04 in 10.0 mi West 11.5 mph 17.3 mph N/A   Clear
6:35 AM 26.6 °F 13.8 °F 14.0 °F 59% 30.05 in 10.0 mi West 17.3 mph 27.6 mph N/A   Clear
6:55 AM 26.6 °F 14.7 °F 14.0 °F 59% 30.05 in 10.0 mi West 15.0 mph 25.3 mph N/A   Clear
7:15 AM 26.6 °F 16.2 °F 14.0 °F 59% 30.07 in 10.0 mi West 11.5 mph 19.6 mph N/A   Clear
7:35 AM 26.6 °F 14.7 °F 15.8 °F 64% 30.07 in 10.0 mi West 15.0 mph 21.9 mph N/A   Clear
7:55 AM 26.6 °F 14.3 °F 14.0 °F 59% 30.08 in 10.0 mi West 16.1 mph 29.9 mph N/A   Clear
8:15 AM 28.4 °F 16.2 °F 15.8 °F 59% 30.09 in 10.0 mi West 17.3 mph 24.2 mph N/A   Clear
8:35 AM 28.4 °F 18.0 °F 15.8 °F 59% 30.10 in 10.0 mi WNW 12.7 mph 24.2 mph N/A   Clear
8:55 AM 28.4 °F 17.0 °F 15.8 °F 59% 30.10 in 10.0 mi West 15.0 mph 24.2 mph N/A   Clear
9:35 AM 30.2 °F 19.8 °F 15.8 °F 55% 30.12 in 10.0 mi West 13.8 mph 20.7 mph N/A   Clear
9:55 AM 32.0 °F 23.0 °F 15.8 °F 51% 30.13 in 10.0 mi West 11.5 mph 19.6 mph N/A   Clear
10:15 AM 32.0 °F 24.2 °F 12.2 °F 44% 30.13 in 10.0 mi West 9.2 mph 19.6 mph N/A   Clear
10:35 AM 33.8 °F 26.4 °F 15.8 °F 48% 30.14 in 10.0 mi West 9.2 mph 20.7 mph N/A   Clear
10:55 AM 33.8 °F 24.3 °F 14.0 °F 44% 30.15 in 10.0 mi West 13.8 mph 24.2 mph N/A   Clear
11:15 AM 35.6 °F 27.1 °F 15.8 °F 44% 30.15 in 10.0 mi West 12.7 mph 20.7 mph N/A   Clear
11:35 AM 35.6 °F 27.5 °F 10.4 °F 35% 30.15 in 10.0 mi West 11.5 mph 27.6 mph N/A   Clear
12:15 PM 37.4 °F 30.8 °F 15.8 °F 41% 30.15 in 10.0 mi West 9.2 mph 20.7 mph N/A   Clear
12:35 PM 37.4 °F 29.8 °F 10.4 °F 33% 30.15 in 10.0 mi West 11.5 mph 19.6 mph N/A   Clear
12:55 PM 37.4 °F 29.3 °F 12.2 °F 36% 30.15 in 10.0 mi West 12.7 mph 20.7 mph N/A   Clear
1:15 PM 39.2 °F 30.5 °F 10.4 °F 31% 30.15 in 10.0 mi West 16.1 mph 29.9 mph N/A   Clear
1:35 PM 39.2 °F 32.0 °F 8.6 °F 28% 30.15 in 10.0 mi West 11.5 mph 17.3 mph N/A   Clear
1:55 PM 39.2 °F 30.8 °F 8.6 °F 28% 30.15 in 10.0 mi West 15.0 mph 26.5 mph N/A   Clear
2:15 PM 39.2 °F 30.5 °F 12.2 °F 33% 30.15 in 10.0 mi West 16.1 mph 24.2 mph N/A   Clear
2:35 PM 39.2 °F 30.5 °F 8.6 °F 28% 30.16 in 10.0 mi West 16.1 mph 27.6 mph N/A   Clear
2:55 PM 39.2 °F 31.6 °F 6.8 °F 26% 30.16 in 10.0 mi West 12.7 mph 29.9 mph N/A   Clear
3:15 PM 39.2 °F 31.6 °F 8.6 °F 28% 30.17 in 10.0 mi West 12.7 mph 19.6 mph N/A   Clear
3:35 PM 39.2 °F 32.5 °F 6.8 °F 26% 30.18 in 10.0 mi West 10.4 mph 24.2 mph N/A   Clear
3:55 PM 39.2 °F 32.0 °F 8.6 °F 28% 30.18 in 10.0 mi West 11.5 mph 19.6 mph N/A   Clear
4:15 PM 39.2 °F 29.8 °F 6.8 °F 26% 30.19 in 10.0 mi West 18.4 mph 27.6 mph N/A   Clear
4:35 PM 37.4 °F 28.2 °F 5.0 °F 26% 30.19 in 10.0 mi WNW 16.1 mph 26.5 mph N/A   Clear
4:55 PM 37.4 °F 30.3 °F 6.8 °F 28% 30.19 in 10.0 mi WNW 10.4 mph 17.3 mph N/A   Clear
5:15 PM 37.4 °F 31.4 °F 6.8 °F 28% 30.20 in 10.0 mi WNW 8.1 mph - N/A   Clear
6:35 PM 32.0 °F 24.8 °F 6.8 °F 35% 30.21 in 10.0 mi NW 8.1 mph - N/A   Clear
6:55 PM 30.2 °F 22.6 °F 6.8 °F 37% 30.22 in 10.0 mi WNW 8.1 mph - N/A   Clear
7:15 PM 30.2 °F 21.9 °F 6.8 °F 37% 30.23 in 10.0 mi WNW 9.2 mph - N/A   Clear
7:35 PM 30.2 °F 22.6 °F 6.8 °F 37% 30.23 in 10.0 mi WNW 8.1 mph - N/A   Clear
7:55 PM 28.4 °F 21.2 °F 8.6 °F 43% 30.24 in 10.0 mi NW 6.9 mph - N/A   Clear
8:15 PM 28.4 °F 20.4 °F 8.6 °F 43% 30.25 in 10.0 mi WNW 8.1 mph - N/A   Clear
8:35 PM 28.4 °F 22.2 °F 6.8 °F 40% 30.25 in 10.0 mi WNW 5.8 mph - N/A   Clear
8:55 PM 28.4 °F 19.7 °F 8.6 °F 43% 30.27 in 10.0 mi WNW 9.2 mph - N/A   Clear
9:15 PM 26.6 °F 19.1 °F 6.8 °F 43% 30.27 in 10.0 mi WNW 6.9 mph - N/A   Clear
9:35 PM 26.6 °F 20.0 °F 8.6 °F 47% 30.28 in 10.0 mi WNW 5.8 mph - N/A   Clear
9:55 PM 26.6 °F 20.0 °F 8.6 °F 47% 30.28 in 10.0 mi NW 5.8 mph - N/A   Clear
10:15 PM 26.6 °F 18.2 °F 8.6 °F 47% 30.27 in 10.0 mi NW 8.1 mph - N/A   Clear
10:35 PM 26.6 °F 18.2 °F 8.6 °F 47% 30.27 in 10.0 mi NNW 8.1 mph - N/A   Clear
10:55 PM 26.6 °F 16.8 °F 8.6 °F 47% 30.28 in 10.0 mi NW 10.4 mph - N/A   Clear
11:15 PM 24.8 °F 16.1 °F 8.6 °F 50% 30.28 in 10.0 mi NW 8.1 mph - N/A   Clear
11:35 PM 24.8 °F 16.9 °F 8.6 °F 50% 30.30 in 10.0 mi WNW 6.9 mph - N/A   Clear